This is the latest recevied weather packets stored in our database for station/object K3PPP. If no packets are shown the sender has not sent any weather packets the latest 10 day(s).
| Time | Temp. | Humidity | Pressure | Rain* | Wind** | Luminosity | Snow |
|---|---|---|---|---|---|---|---|
| 1777651343 | 10° C | 61% | 1012.5 hPa | 0 mm | - | 316 W/m² | - |
| 1777651040 | 10° C | 63% | 1012.3 hPa | 0 mm | - | 350 W/m² | - |
| 1777650737 | 10.56° C | 61% | 1012.4 hPa | 0 mm | - | 484 W/m² | - |
| 1777650434 | 11.11° C | 61% | 1012.3 hPa | 0 mm | - | 589 W/m² | - |
| 1777650131 | 10.56° C | 60% | 1012.6 hPa | 0 mm | - | 690 W/m² | - |
| 1777649829 | 10.56° C | 56% | 1012.4 hPa | 0 mm | - | 727 W/m² | - |
| 1777649526 | 10° C | 56% | 1012.5 hPa | 0 mm | - | 516 W/m² | - |
| 1777649222 | 9.44° C | 60% | 1012.4 hPa | 0 mm | - | 541 W/m² | - |
| 1777648919 | 9.44° C | 58% | 1012.7 hPa | 0 mm | - | 559 W/m² | - |
| 1777648616 | 9.44° C | 61% | 1012.8 hPa | 0 mm | - | 374 W/m² | - |
| 1777648312 | 10° C | 61% | 1012.6 hPa | 0 mm | - | 332 W/m² | - |
| 1777648009 | 10° C | 56% | 1012.8 hPa | 0 mm | - | 455 W/m² | - |
| 1777647706 | 9.44° C | 58% | 1012.9 hPa | 0 mm | - | 511 W/m² | - |
| 1777647401 | 9.44° C | 59% | 1013.2 hPa | 0 mm | - | 364 W/m² | - |
| 1777647099 | 8.89° C | 60% | 1013 hPa | 0 mm | - | 444 W/m² | - |
| 1777646795 | 8.89° C | 58% | 1013.2 hPa | 0 mm | - | 422 W/m² | - |
| 1777646490 | 8.89° C | 58% | 1013.2 hPa | 0 mm | - | 465 W/m² | - |
| 1777646187 | 8.89° C | 61% | 1013.2 hPa | 0 mm | - | 554 W/m² | - |
| 1777645885 | 8.89° C | 66% | 1013.3 hPa | 0 mm | - | 351 W/m² | - |
| 1777645582 | 8.33° C | 67% | 1013.1 hPa | 0 mm | - | 508 W/m² | - |
| 1777645278 | 8.33° C | 64% | 1012.9 hPa | 0 mm | - | 364 W/m² | - |
| 1777644974 | 8.33° C | 69% | 1013.1 hPa | 0 mm | - | 479 W/m² | - |
| 1777644672 | 7.78° C | 68% | 1013.2 hPa | 0 mm | - | 423 W/m² | - |
| 1777644367 | 7.78° C | 69% | 1013.1 hPa | 0 mm | - | 394 W/m² | - |
| 1777644064 | 7.78° C | 74% | 1013 hPa | 0 mm | - | 459 W/m² | - |
* Rain latest hour (hover to see other rain measurements)
** Current wind speed in m/s (hover to see current wind gust speed)